S-NET A (43188 NORAD) Tracking and Keplerian Element Data

This shows tracking and keplerian element data for the satellite.

Feedback or suggestion? Click here.




ElementValue
Catalog43188
NameS-NET A
Epoch Orbit4739
Epoch Day349.22292257
Epoch Year2018
RAAN255.2675
Inclination97.7174
Eccentricity0.0009484
Argument of Perigee265.6535
Mean Anonmoly94.3603
Mean Motion14.96550717
Decay Rate6.52E-06
L11 43188U 18014J 18349.22292257 .00000652 00000-0 62354-4 0 9991
L22 43188 97.7174 255.2675 0009484 265.6535 94.3603 14.96550717 47393

Live tracking and technical data element details for S-NET A (NORAD 43188). S-NET A can be tracked NOW for your location showing map with azimuth and elevation plus other details from your city location.

Track the satellite on the map from your city or location and see movement details for azimuth, elevation, latitude, longitude, range, height, and movement on the map or in text.







IsCatalogInMostPopularTable: catalog: 43188, numindb: 135
Update: records affected: 1



GetName: 43188 S-NET A

Hit Count: updated at: Sat, 15 Dec 2018 13:15:14 GMT